Showing default

GONETS M 17, 46486

Orbit data source: Space-Track

GONETS M 17, 46486 is a payload satellite owned by Gonets (CIS) in LEO that was launched on Mon, 28 Sep 2020 UTC via a SOYUZ-2-1B launch vehicle from the Plesetsk Missile And Space Complex (PKMTR). Payload-class satellites include a variety of spacecraft equipped with specific instruments for various scientific and technological missions. These include communications satellites like Starlink; space stations such as the ISS; scientific satellites like the Hubble; Earth observation satellites from companies like Planet Labs, Umbra, and HawkEye 360; GPS; miniature CubeSats for education and research; and military/defense satellites.

Loading next visibility...
Identifier
46486, 2020-068A
Orbit
LEO
Country
Flag of CISCIS
Related business
Manufacturer
Resehetnev ISS
Mission
Operational Commercial Communications
Bus & Motor
STRELA-3M, Unknown motor
Mass
225 kg wet, 225 kg dry
Launch date (UTC)
2020-09-28 (6 years ago)
Launch vehicle
SOYUZ-2-1B
Launch site
Plesetsk Missile And Space Complex (PKMTR)
Object type
Payload
Rocket body
Debris
Shape & HBR
Cyl + 1 Ant, 3.5 m
Radar Cross Section
1.798 m², Large (>1 m²)

Expand to show TLE details & history
Last TLE update: 9 hours ago

TLE from 9 hours ago
0 GONETS M 17
1 46486U 20068A   26124.82100325  .00000043  00000-0  24110-3 0  9998
2 46486  82.5026  14.4814 0022987 127.7327 232.5841 12.42871390253778
Epoch: 2026-05-04T19:42Z
TLE epoch observation values (Epoch: 2026-05-04T19:42:14.680Z)
Latitude
0.00001°
Longitude
-143.78447°
Altitude
1,508.178 km
Speed
7.106 km/s
True Right ascension
00h 57m 55s
True Declination
0° 00' 00"
Sunlit
Object was in daylight at epoch
Visualization orbit readout
Latitude
Unknown
Longitude
Unknown
Altitude
Unknown
Speed
Unknown
Apparent Right ascension
Unknown
Apparent Declination
Unknown
Sunlit
N/A
Visualization observer readout
Local Sidereal Time
12:32:02
Azimuth
Unknown
Elevation
Unknown
Doppler factor
Unknown
Orbital elements
Apogee altitude
1,509.896 km
Perigee altitude
1,473.715 km
Semi-major axis
7,869.943 km
Eccentricity
0.0023
Inclination
82.5026°
RAAN
14.4814°
Arg. of periapsis
127.7327°
True anomaly
232.37525°
Mean anomaly
232.5841°
Eccentric anomaly
232.47964°
Mean motion
3.10875 °/min
Orbital period
115.8 mins
BSTAR
0.0002411
Loading maneuver chart data...
Computing Atmospheric mass density...
Loading historical data...
Loading historical data...
Loading historical data...
Loading historical data...
Loading historical data...
Loading historical data...
Loading historical data...

Documentation

Showing up to 5 results
|